TimeEST,TemperatureF,Dew PointF,Humidity,Sea Level PressureIn,VisibilityMPH,Wind Direction,Wind SpeedMPH,Gust SpeedMPH,PrecipitationIn,Events,Conditions,WindDirDegrees,DateUTC
12:52 AM,44.1,43.0,96,29.96,10.0,Calm,Calm,-,N/A,,Mostly Cloudy,0,2011-11-16 05:52:00
1:23 AM,42.8,42.8,100,29.95,1.5,Calm,Calm,-,N/A,,Partly Cloudy,0,2011-11-16 06:23:00
1:25 AM,42.8,42.8,100,29.95,1.0,Calm,Calm,-,N/A,,Partly Cloudy,0,2011-11-16 06:25:00
1:33 AM,42.8,41.0,93,29.95,0.5,Calm,Calm,-,N/A,Fog,Fog,0,2011-11-16 06:33:00
1:52 AM,41.0,41.0,100,29.96,0.5,Calm,Calm,-,N/A,Fog,Fog,0,2011-11-16 06:52:00
1:58 AM,41.0,41.0,100,29.95,1.2,Calm,Calm,-,N/A,,Clear,0,2011-11-16 06:58:00
2:01 AM,41.0,39.2,93,29.95,2.0,Calm,Calm,-,N/A,,Clear,0,2011-11-16 07:01:00
2:27 AM,41.0,39.2,93,29.95,2.5,Calm,Calm,-,N/A,,Clear,0,2011-11-16 07:27:00
2:38 AM,39.2,39.2,100,29.94,1.2,Calm,Calm,-,N/A,,Clear,0,2011-11-16 07:38:00
2:44 AM,39.2,39.2,100,29.94,0.8,Calm,Calm,-,N/A,,Clear,0,2011-11-16 07:44:00
2:52 AM,39.9,39.0,97,29.96,0.5,Calm,Calm,-,N/A,Fog,Fog,0,2011-11-16 07:52:00
3:03 AM,39.2,37.4,93,29.95,1.2,Calm,Calm,-,N/A,,Clear,0,2011-11-16 08:03:00
3:05 AM,39.2,39.2,100,29.95,2.0,Calm,Calm,-,N/A,,Clear,0,2011-11-16 08:05:00
3:13 AM,39.2,39.2,100,29.94,4.0,Calm,Calm,-,N/A,,Clear,0,2011-11-16 08:13:00
3:16 AM,39.2,39.2,100,29.94,1.8,Calm,Calm,-,N/A,,Clear,0,2011-11-16 08:16:00
3:18 AM,39.2,39.2,100,29.94,1.0,Calm,Calm,-,N/A,,Clear,0,2011-11-16 08:18:00
3:27 AM,37.4,37.4,100,29.95,0.8,Calm,Calm,-,N/A,,Mist,0,2011-11-16 08:27:00
3:37 AM,39.2,37.4,93,29.94,0.5,Calm,Calm,-,N/A,Fog,Fog,0,2011-11-16 08:37:00
3:45 AM,37.4,37.4,100,29.93,0.5,Calm,Calm,-,N/A,Fog,Fog,0,2011-11-16 08:45:00
3:49 AM,39.2,37.4,93,29.93,1.2,Calm,Calm,-,N/A,,Partly Cloudy,0,2011-11-16 08:49:00
3:52 AM,39.0,37.9,96,29.94,3.0,Calm,Calm,-,N/A,,Partly Cloudy,0,2011-11-16 08:52:00
4:33 AM,37.4,37.4,100,29.93,1.8,Calm,Calm,-,N/A,,Partly Cloudy,0,2011-11-16 09:33:00
4:36 AM,39.2,37.4,93,29.92,1.0,Calm,Calm,-,N/A,,Mist,0,2011-11-16 09:36:00
4:44 AM,37.4,37.4,100,29.93,1.5,Calm,Calm,-,N/A,,Mostly Cloudy,0,2011-11-16 09:44:00
4:47 AM,39.2,37.4,93,29.93,3.0,Calm,Calm,-,N/A,,Mostly Cloudy,0,2011-11-16 09:47:00
4:52 AM,39.9,39.0,97,29.95,8.0,Calm,Calm,-,N/A,,Mostly Cloudy,0,2011-11-16 09:52:00
5:52 AM,41.0,39.0,93,29.94,10.0,Calm,Calm,-,N/A,,Scattered Clouds,0,2011-11-16 10:52:00
6:12 AM,39.2,39.2,100,29.92,1.5,Calm,Calm,-,N/A,,Clear,0,2011-11-16 11:12:00
6:18 AM,39.2,37.4,93,29.93,1.0,Calm,Calm,-,N/A,,Clear,0,2011-11-16 11:18:00
6:26 AM,37.4,37.4,100,29.93,0.5,Calm,Calm,-,N/A,Fog,Fog,0,2011-11-16 11:26:00
6:33 AM,37.4,37.4,100,29.93,1.2,Calm,Calm,-,N/A,,Clear,0,2011-11-16 11:33:00
6:44 AM,39.2,37.4,93,29.92,1.0,Calm,Calm,-,N/A,,Clear,0,2011-11-16 11:44:00
6:52 AM,37.9,37.0,97,29.94,1.0,Calm,Calm,-,N/A,,Clear,0,2011-11-16 11:52:00
6:54 AM,37.4,37.4,100,29.93,1.5,Calm,Calm,-,N/A,,Clear,0,2011-11-16 11:54:00
6:58 AM,37.4,37.4,100,29.93,3.0,Calm,Calm,-,N/A,,Clear,0,2011-11-16 11:58:00
7:22 AM,37.4,37.4,100,29.94,2.5,Calm,Calm,-,N/A,,Scattered Clouds,0,2011-11-16 12:22:00
7:29 AM,39.2,37.4,93,29.94,6.0,Calm,Calm,-,N/A,,Mostly Cloudy,0,2011-11-16 12:29:00
7:52 AM,41.0,39.0,93,29.95,10.0,Calm,Calm,-,N/A,,Overcast,0,2011-11-16 12:52:00
8:52 AM,43.0,41.0,93,29.95,10.0,Calm,Calm,-,N/A,,Overcast,0,2011-11-16 13:52:00
9:52 AM,48.0,43.0,83,29.94,10.0,Calm,Calm,-,N/A,,Scattered Clouds,0,2011-11-16 14:52:00
10:52 AM,53.1,45.0,74,29.90,10.0,Calm,Calm,-,N/A,,Mostly Cloudy,0,2011-11-16 15:52:00
11:52 AM,55.9,48.9,77,29.84,10.0,South,9.2,-,N/A,,Mostly Cloudy,190,2011-11-16 16:52:00
12:52 PM,55.9,48.9,77,29.82,10.0,South,6.9,-,N/A,,Overcast,170,2011-11-16 17:52:00
1:52 PM,57.0,48.9,74,29.81,10.0,South,5.8,-,0.00,Rain,Light Rain,190,2011-11-16 18:52:00
2:52 PM,54.0,52.0,93,29.78,10.0,ESE,3.5,-,0.02,Rain,Light Rain,120,2011-11-16 19:52:00
3:52 PM,53.1,52.0,96,29.78,7.0,Calm,Calm,-,0.02,Rain,Light Rain,0,2011-11-16 20:52:00
4:02 PM,53.6,51.8,94,29.76,6.0,Calm,Calm,-,0.01,Rain,Light Rain,0,2011-11-16 21:02:00
4:25 PM,53.6,51.8,94,29.76,1.8,Calm,Calm,-,0.01,Rain,Light Rain,0,2011-11-16 21:25:00
4:34 PM,51.8,51.8,100,29.75,3.0,Calm,Calm,-,0.02,Rain,Light Rain,0,2011-11-16 21:34:00
4:52 PM,52.0,52.0,100,29.76,2.5,Calm,Calm,-,0.02,Rain,Light Rain,0,2011-11-16 21:52:00
4:56 PM,51.8,51.8,100,29.74,1.2,Calm,Calm,-,0.01,Rain,Light Rain,0,2011-11-16 21:56:00
5:19 PM,51.8,51.8,100,29.73,0.8,Calm,Calm,-,0.02,Rain,Light Rain,0,2011-11-16 22:19:00
5:28 PM,51.8,51.8,100,29.72,1.2,Calm,Calm,-,0.02,Rain,Light Rain,0,2011-11-16 22:28:00
5:34 PM,51.8,50.0,94,29.72,0.8,Calm,Calm,-,0.02,Rain,Light Rain,0,2011-11-16 22:34:00
5:52 PM,51.1,50.0,96,29.73,0.8,Calm,Calm,-,0.02,Rain,Light Rain,0,2011-11-16 22:52:00
6:13 PM,51.8,51.8,100,29.73,2.0,Calm,Calm,-,0.00,Rain,Light Rain,0,2011-11-16 23:13:00
6:22 PM,51.8,51.8,100,29.73,3.0,Calm,Calm,-,0.01,Rain,Light Rain,0,2011-11-16 23:22:00
6:35 PM,51.8,51.8,100,29.74,4.0,Calm,Calm,-,0.01,Rain,Light Rain,0,2011-11-16 23:35:00
6:47 PM,51.8,51.8,100,29.75,2.5,Calm,Calm,-,0.01,Rain,Light Rain,0,2011-11-16 23:47:00
7:11 PM,51.8,51.8,100,29.74,3.0,Calm,Calm,-,0.00,Rain,Light Rain,0,2011-11-17 00:11:00
7:17 PM,51.8,51.8,100,29.73,1.0,Calm,Calm,-,0.00,Rain,Light Rain,0,2011-11-17 00:17:00
7:25 PM,51.8,51.8,100,29.73,0.8,Calm,Calm,-,0.00,Rain,Light Rain,0,2011-11-17 00:25:00
7:28 PM,51.8,51.8,100,29.73,1.2,Calm,Calm,-,0.01,Rain,Light Rain,0,2011-11-17 00:28:00
7:30 PM,51.8,51.8,100,29.73,2.0,Calm,Calm,-,0.01,Rain,Light Rain,0,2011-11-17 00:30:00
7:48 PM,51.8,51.8,100,29.74,1.8,Calm,Calm,-,0.02,Rain,Light Rain,0,2011-11-17 00:48:00
7:52 PM,51.1,51.1,100,29.75,1.2,Calm,Calm,-,0.02,Rain,Light Rain,0,2011-11-17 00:52:00
7:57 PM,51.8,50.0,94,29.74,0.8,Calm,Calm,-,0.01,Rain,Light Rain,0,2011-11-17 00:57:00
8:52 PM,50.0,50.0,100,29.76,1.0,NW,3.5,-,0.04,Rain,Light Rain,310,2011-11-17 01:52:00
8:56 PM,51.8,50.0,94,29.75,1.5,NW,4.6,-,0.01,Rain,Light Rain,310,2011-11-17 01:56:00
8:59 PM,51.8,50.0,94,29.75,3.0,NW,3.5,-,0.01,Rain,Light Rain,310,2011-11-17 01:59:00
9:52 PM,51.1,50.0,96,29.75,6.0,Calm,Calm,-,0.02,Rain,Light Rain,0,2011-11-17 02:52:00
10:21 PM,50.0,50.0,100,29.72,1.8,Calm,Calm,-,0.01,,Overcast,0,2011-11-17 03:21:00
10:24 PM,50.0,50.0,100,29.71,1.0,Calm,Calm,-,0.01,,Overcast,0,2011-11-17 03:24:00
10:34 PM,50.0,48.2,94,29.72,0.8,Calm,Calm,-,0.01,,Overcast,0,2011-11-17 03:34:00
10:52 PM,50.0,48.9,96,29.71,0.8,Calm,Calm,-,0.01,,Overcast,0,2011-11-17 03:52:00
11:09 PM,48.2,48.2,100,29.72,0.5,WSW,3.5,-,N/A,Fog,Fog,240,2011-11-17 04:09:00
11:52 PM,50.0,48.9,96,29.73,0.8,Calm,Calm,-,0.00,Rain,Light Rain,0,2011-11-17 04:52:00